Gallivare, Sweden

2:04 AM CET on February 28, 2017 (GMT +0100)
Gallivare

Weather History for ESNG - June, 2013

Change the Weather History Date:

Wednesday, June 12, 2013

  Actual Average Record
Temperature  
Mean Temperature 44 °F -  
Max Temperature 50 °F - - ()
Min Temperature 39 °F - - ()
Degree Days  
Heating Degree Days 20    
Moisture  
Dew Point 33 °F    
Average Humidity 67    
Maximum Humidity 87    
Minimum Humidity 47    
Precipitation  
Precipitation 0.00 in - - ()
Sea Level Pressure  
Sea Level Pressure 30.01 in    
Wind  
Wind Speed 4 mph ()    
Max Wind Speed 10 mph    
Max Gust Speed 18 mph    
Visibility 6.1 miles    
Events Rain    
T = Trace of Precipitation, MM = Missing Value Source: Averaged Metar Reports

Daily Weather History Graph

Daily Weather History Graph

Search for Another Location

Airport or City:

Trip Planner

Search our weather history database for the weather conditions in past years. The results will help you decide how hot, cold, wet, or windy it might be!

Date:

Astronomy

Jun. 12, 2013 Rise Set
Actual Time 1:09 AM CEST 12:04 AM CEST
Civil Twilight Sun does not rise Sun does not rise
Nautical Twilight Sun does not rise Sun does not rise
Astronomical Twilight Sun does not rise Sun does not rise
Moon 6:37 AM CEST (6/12) No Moon Set
Length of Visible Light 24h 00m
Length of Day
22h 55m
Waxing Crescent, 12% of the Moon is Illuminated
Jun 12
Waxing Crescent
Jun 16
First Quarter
Jun 23
Full
Jun 30
Last Quarter
Jul 8
New

Hourly Weather History & Observations

Time (CEST) Temp. Windchill Dew Point Humidity Pressure Visibility Wind Dir Wind Speed Gust Speed Precip Events Conditions
12:20 AM 42.8 °F 39.3 °F 32.0 °F 66% 29.92 in 6.2 mi North 5.8 mph - N/A   Mostly Cloudy
12:50 AM 42.8 °F 40.1 °F 33.8 °F 70% 29.92 in 6.2 mi North 4.6 mph - N/A   Mostly Cloudy
1:20 AM 42.8 °F 40.1 °F 33.8 °F 70% 29.92 in 6.2 mi NNE 4.6 mph - N/A   Scattered Clouds
1:50 AM 42.8 °F 40.1 °F 33.8 °F 70% 29.95 in 6.2 mi North 4.6 mph - N/A   Scattered Clouds
2:20 AM 41.0 °F - 33.8 °F 76% 29.95 in 6.2 mi Variable 2.3 mph - N/A   Scattered Clouds
2:50 AM 41.0 °F 38.0 °F 33.8 °F 76% 29.95 in 6.2 mi NNW 4.6 mph - N/A   Mostly Cloudy
3:20 AM 41.0 °F - 35.6 °F 81% 29.95 in 6.2 mi Variable 2.3 mph - N/A   Light Drizzle
3:50 AM 41.0 °F - 35.6 °F 81% 29.95 in 6.2 mi NNE 2.3 mph - N/A   Drizzle
4:20 AM 41.0 °F 39.0 °F 35.6 °F 81% 29.98 in 6.2 mi NNE 3.5 mph - N/A   Light Drizzle
4:50 AM 41.0 °F - 33.8 °F 76% 29.98 in 6.2 mi NE 2.3 mph - N/A   Light Drizzle
5:20 AM 41.0 °F 39.0 °F 32.0 °F 70% 29.98 in 6.2 mi ENE 3.5 mph - N/A   Partly Cloudy
5:50 AM 41.0 °F 37.1 °F 32.0 °F 70% 29.98 in 6.2 mi NE 5.8 mph - N/A   Partly Cloudy
6:20 AM 41.0 °F 38.0 °F 30.2 °F 65% 29.98 in 6.2 mi East 4.6 mph - N/A   Scattered Clouds
6:50 AM 41.0 °F 38.0 °F 32.0 °F 70% 29.98 in 6.2 mi East 4.6 mph - N/A   Mostly Cloudy
7:20 AM 41.0 °F 39.0 °F 30.2 °F 65% 30.01 in 6.2 mi East 3.5 mph - N/A   Scattered Clouds
7:50 AM 41.0 °F - 30.2 °F 65% 30.01 in 6.2 mi Variable 2.3 mph - N/A   Scattered Clouds
8:20 AM 42.8 °F - 32.0 °F 66% 30.01 in - Variable 2.3 mph - N/A   Clear
8:50 AM 44.6 °F - 32.0 °F 61% 30.01 in 6.2 mi Variable 2.3 mph - N/A   Partly Cloudy
9:20 AM 42.8 °F 40.1 °F 32.0 °F 66% 30.01 in 6.2 mi Variable 4.6 mph - N/A   Scattered Clouds
9:50 AM 42.8 °F 40.1 °F 32.0 °F 66% 30.01 in 6.2 mi SSE 4.6 mph - N/A   Scattered Clouds
10:20 AM 39.2 °F 32.5 °F 35.6 °F 87% 30.04 in 3.7 mi North 10.4 mph - N/A Rain Rain Showers
10:50 AM 39.2 °F 37.0 °F 35.6 °F 87% 30.04 in 6.2 mi SE 3.5 mph - N/A   Light Drizzle
11:20 AM 41.0 °F 38.0 °F 37.4 °F 87% 30.04 in 6.2 mi ESE 4.6 mph - N/A   Mostly Cloudy
11:50 AM 44.6 °F 40.7 °F 39.2 °F 81% 30.04 in 6.2 mi NE 6.9 mph 18.4 mph N/A Rain Light Rain
12:20 PM 41.0 °F 38.0 °F 35.6 °F 81% 30.04 in 6.2 mi Variable 4.6 mph - N/A Rain Light Rain
12:50 PM 42.8 °F 41.1 °F 35.6 °F 76% 30.04 in 6.2 mi East 3.5 mph - N/A   Mostly Cloudy
1:20 PM 44.6 °F 43.1 °F 35.6 °F 71% 30.04 in 6.2 mi NE 3.5 mph - N/A   Scattered Clouds
1:50 PM 44.6 °F 41.4 °F 33.8 °F 66% 30.04 in 6.2 mi East 5.8 mph - N/A   Mostly Cloudy
2:20 PM 46.4 °F 44.3 °F 35.6 °F 66% 30.04 in 6.2 mi East 4.6 mph - N/A   Scattered Clouds
2:50 PM 46.4 °F 43.5 °F 33.8 °F 62% 30.04 in 6.2 mi SE 5.8 mph - N/A   Mostly Cloudy
3:20 PM 48.2 °F - 35.6 °F 62% 30.04 in 6.2 mi Variable 3.5 mph - N/A   Mostly Cloudy
3:50 PM 46.4 °F 43.5 °F 32.0 °F 57% 30.04 in 6.2 mi NNW 5.8 mph - N/A   Scattered Clouds
4:20 PM 48.2 °F - 32.0 °F 54% 30.04 in 6.2 mi Variable 3.5 mph - N/A   Scattered Clouds
4:50 PM 46.4 °F 42.4 °F 33.8 °F 62% 30.04 in 6.2 mi ENE 8.1 mph - N/A   Mostly Cloudy
5:20 PM 48.2 °F - 32.0 °F 54% 30.04 in 6.2 mi ENE 3.5 mph - N/A   Mostly Cloudy
5:50 PM 50.0 °F - 32.0 °F 50% 30.04 in 6.2 mi NE 6.9 mph - N/A   Scattered Clouds
6:20 PM 48.2 °F - 30.2 °F 50% 30.04 in 6.2 mi North 4.6 mph - N/A   Mostly Cloudy
6:50 PM 50.0 °F - 30.2 °F 47% 30.04 in 6.2 mi ENE 5.8 mph - N/A   Scattered Clouds
7:20 PM 50.0 °F - 32.0 °F 50% 30.04 in 6.2 mi ENE 5.8 mph - N/A   Scattered Clouds
7:50 PM 50.0 °F - 30.2 °F 47% 30.04 in 6.2 mi East 5.8 mph - N/A   Scattered Clouds
8:20 PM 48.2 °F - 32.0 °F 54% 30.04 in 6.2 mi SE 4.6 mph - N/A   Partly Cloudy
8:50 PM 48.2 °F - 30.2 °F 50% 30.04 in - SE 5.8 mph - N/A   Clear
9:20 PM 48.2 °F - 32.0 °F 54% 30.04 in - East 5.8 mph - N/A   Clear
9:50 PM 48.2 °F - 32.0 °F 54% 30.04 in - ESE 3.5 mph - N/A   Clear
10:20 PM 46.4 °F 45.2 °F 32.0 °F 57% 30.04 in 6.2 mi ESE 3.5 mph - N/A   Unknown
10:50 PM 44.6 °F 43.1 °F 33.8 °F 66% 30.04 in 6.2 mi East 3.5 mph - N/A   Unknown
11:20 PM 41.0 °F - 33.8 °F 76% 30.04 in 6.2 mi ESE 2.3 mph - N/A   Unknown
11:50 PM 39.2 °F - 33.8 °F 81% 30.04 in 6.2 mi East 2.3 mph - N/A   Unknown